This demonstration page uses our WeatherBlox Daily Observations layout. Learn more.

Left ArrowRight Arrow

40.92945, -100.16068

Hourly Observations for July 29, 2020

Temp ( °F °C ) Dew Point ( °F °C ) Humidity (%) Winds ( mph kmh ) Pressure ( in mb ) Visibility ( mi km ) Precip ( " mm )
12:15 am 00:15 Clear 73 22.5 69 20.5 89 89 SSE 5 7 29.87 1012 10 16.0934 0 0
12:35 am 00:35 Clear 73 22.5 69 20.3 87 87 SSE 6 9 29.87 1012 10 16.0934 0 0
12:55 am 00:55 Clear 72 22.2 68 20.2 89 89 SSE 6 9 29.86 1011 10 16.0934 0 0
1:15 am 01:15 Clear 71 21.8 68 20.1 90 90 S 5 7 29.87 1011 10 16.0934 0 0
1:35 am 01:35 Clear 71 21.7 68 20 90 90 SSE 3 6 29.86 1011 10 16.0934 0 0
1:55 am 01:55 Clear 72 22 68 20.1 89 89 SSE 6 9 29.86 1011 10 16.0934 0 0
2:15 am 02:15 Clear 72 22.1 69 20.3 90 90 SE 6 9 29.85 1011 10 16.0934 0 0
2:35 am 02:35 Clear 71 21.6 68 20.2 92 92 Calm 29.86 1011 10 16.0934 0 0
2:55 am 02:55 Clear 71 21.5 68 20.1 92 92 Calm 29.85 1011 10 16.0934 0 0
3:15 am 03:15 Clear 70 21.1 68 20 93 93 Calm 29.84 1011 10 16.0934 0 0
3:35 am 03:35 Clear 70 21.2 68 20.1 93 93 Calm 29.83 1010 10 16.0934 0 0
3:55 am 03:55 Clear 71 21.6 69 20.5 93 93 Calm 29.83 1010 10 16.0934 0 0
4:15 am 04:15 Clear 71 21.5 69 20.4 93 93 Calm 29.83 1010 10 16.0934 0 0
4:35 am 04:35 Clear 69 20.7 68 20.1 96 96 Calm 29.84 1010 10 16.0934 0 0
4:55 am 04:55 Clear 70 21.1 68 20.2 95 95 Calm 29.84 1011 10 16.0934 0 0
5:15 am 05:15 Clear 69 20.8 68 20.1 96 96 Calm 29.86 1011 10 16.0934 0 0
5:35 am 05:35 Clear 69 20.8 68 20 95 95 Calm 29.86 1011 10 16.0934 0 0
5:55 am 05:55 Clear 69 20.6 68 20 96 96 Calm 29.86 1011 7 11.26538 0 0
6:15 am 06:15 Clear 70 21 68 20.2 95 95 Calm 29.86 1011 10 16.0934 0 0
6:35 am 06:35 Sunny 69 20.5 68 20 97 97 Calm 29.87 1011 7 11.26538 0 0
6:55 am 06:55 Sunny 69 20.5 68 20 97 97 Calm 29.87 1011 7 11.26538 0 0
7:15 am 07:15 Sunny with Mist and Fog 69 20.7 68 20.2 97 97 ENE 3 6 29.87 1011 5 8.0467 0 0
7:35 am 07:35 Sunny 71 21.4 69 20.5 95 95 ENE 3 6 29.86 1011 7 11.26538 0 0
7:55 am 07:55 Sunny 71 21.6 69 20.6 94 94 Calm 29.85 1011 7 11.26538 0 0
8:15 am 08:15 Sunny 72 22 69 20.8 93 93 E 3 6 29.85 1011 10 16.0934 0 0
8:35 am 08:35 Sunny 72 22.3 70 20.9 92 92 ENE 3 6 29.84 1011 10 16.0934 0 0
8:55 am 08:55 Sunny 72 22.3 70 21 92 92 ESE 3 6 29.83 1010 10 16.0934 0 0
9:15 am 09:15 Sunny 75 24 71 21.4 85 85 ESE 3 6 29.83 1010 10 16.0934 0 0
9:35 am 09:35 Sunny 76 24.5 71 21.4 83 83 Calm 29.82 1010 10 16.0934 0 0
9:55 am 09:55 Sunny 78 25.6 71 21.4 78 78 SE 3 6 29.81 1009 10 16.0934 0 0
10:15 am 10:15 Sunny 79 25.9 71 21.4 76 76 SE 3 6 29.81 1010 10 16.0934 0 0
10:35 am 10:35 Sunny 79 26.1 71 21.5 76 76 Calm 29.81 1010 10 16.0934 0 0
10:55 am 10:55 Sunny 81 27.1 71 21.7 72 72 SE 5 7 29.8 1009 10 16.0934 0 0
11:15 am 11:15 Sunny 81 27.4 71 21.5 70 70 E 5 7 29.8 1009 10 16.0934 0 0
11:35 am 11:35 Partly Cloudy 82 27.8 70 21 67 67 E 6 9 29.8 1009 10 16.0934 0 0
11:55 am 11:55 Partly Cloudy 83 28.4 68 20 60 60 ENE 5 7 29.78 1009 10 16.0934 0 0
12:15 pm 12:15 Sunny 84 28.7 69 20.3 60 60 ESE 6 9 29.78 1008 10 16.0934 0 0
12:35 pm 12:35 Partly Cloudy 85 29.4 67 19.5 55 55 SSE 6 9 29.76 1008 10 16.0934 0 0
12:55 pm 12:55 Sunny 86 30 66 18.9 51 51 S 6 9 29.76 1008 10 16.0934 0 0
1:15 pm 13:15 Partly Cloudy 86 29.8 64 17.6 48 48 S 3 6 29.76 1008 10 16.0934 0 0
1:35 pm 13:35 Mostly Cloudy 87 30.8 64 17.6 45 45 SSW 7 11 29.74 1007 10 16.0934 0 0
1:55 pm 13:55 Partly Cloudy 87 30.4 63 17 45 45 Calm 29.75 1007 10 16.0934 0 0
2:15 pm 14:15 Partly Cloudy 88 31.2 64 18 45 45 ENE 5 7 29.73 1007 10 16.0934 0 0
2:35 pm 14:35 Mostly Cloudy 87 30.7 64 17.8 46 46 SSE 7 11 29.72 1007 10 16.0934 0 0
2:55 pm 14:55 Partly Cloudy 87 30.7 66 18.7 49 49 SE 9 15 29.71 1006 10 16.0934 0 0
3:15 pm 15:15 Partly Cloudy 88 31.1 67 19.3 49 49 ESE 10 17 29.72 1006 10 16.0934 0 0
3:35 pm 15:35 Partly Cloudy 88 30.9 66 18.9 49 49 SE 6 9 29.72 1007 10 16.0934 0 0
3:55 pm 15:55 Cloudy 87 30.4 66 18.7 50 50 E 5 7 29.72 1006 10 16.0934 0 0
4:15 pm 16:15 Mostly Cloudy 87 30.4 67 19.2 51 51 SE 8 13 29.7 1006 10 16.0934 0 0
4:35 pm 16:35 Partly Cloudy 88 31 66 18.7 48 48 ESE 7 11 29.68 1005 10 16.0934 0 0
4:55 pm 16:55 Partly Cloudy 88 31.2 67 19.4 49 49 E 14 22 29.68 1005 10 16.0934 0 0
5:15 pm 17:15 Mostly Cloudy 86 29.8 67 19.2 53 53 E 10 17 29.69 1005 10 16.0934 0 0
5:35 pm 17:35 Partly Cloudy 87 30.5 66 18.8 50 50 E 8 13 29.69 1005 10 16.0934 0 0
5:55 pm 17:55 Partly Cloudy 85 29.3 68 20 57 57 NE 13 20 29.7 1006 10 16.0934 0 0
6:15 pm 18:15 Mostly Cloudy 81 27 68 20.1 66 66 NE 7 11 29.7 1006 10 16.0934 0 0
6:35 pm 18:35 Partly Cloudy 80 26.8 70 20.9 70 70 ENE 10 17 29.73 1007 10 16.0934 0 0
6:55 pm 18:55 Sunny 79 26.1 70 21.2 74 74 ENE 8 13 29.73 1007 10 16.0934 0 0
7:15 pm 19:15 Sunny 81 27 70 21 70 70 E 10 17 29.73 1007 10 16.0934 0 0
7:35 pm 19:35 Sunny 81 27 71 21.6 72 72 E 12 19 29.73 1007 10 16.0934 0 0
7:55 pm 19:55 Partly Cloudy 82 27.5 71 21.7 71 71 E 12 19 29.74 1007 10 16.0934 0 0
8:15 pm 20:15 Cloudy 80 26.8 71 21.6 73 73 ENE 17 28 29.76 1008 10 16.0934 0 0
8:35 pm 20:35 Cloudy with Nearby Thunderstorms 75 23.9 66 18.9 74 74 ENE 12 19 29.79 1009 10 16.0934 0 0
8:55 pm 20:55 Mostly Cloudy with Nearby Thunderstorms 73 22.5 64 17.7 74 74 SE 18 30 29.81 1010 10 16.0934 0 0
9:15 pm 21:15 Partly Cloudy 69 20.8 65 18.1 85 85 E 14 22 29.82 1010 10 16.0934 0 0
9:35 pm 21:35 Clear 70 21 64 17.8 82 82 ESE 8 13 29.8 1009 10 16.0934 0 0
9:55 pm 21:55 Partly Cloudy 69 20.5 64 18 86 86 E 6 9 29.83 1010 10 16.0934 0 0
10:15 pm 22:15 Mostly Cloudy 69 20.7 65 18.1 85 85 NE 9 15 29.85 1011 10 16.0934 0 0
10:35 pm 22:35 Cloudy with Rain 70 21.2 65 18.1 83 83 N 20 31 29.91 1013 10 16.0934 0 0
10:55 pm 22:55 Cloudy with Nearby Thunderstorms 67 19.3 63 17.3 88 88 N 16 26 29.94 1014 7 11.26538 0.04 1.016
11:15 pm 23:15 Cloudy with Rain 66 18.7 64 18 96 96 Calm 29.93 1014 4 6.43736 0.08 2.032
11:35 pm 23:35 Cloudy with Light Rain 66 19 65 18.2 95 95 SSW 6 9 29.9 1013 10 16.0934 0.11 2.794
11:55 pm 23:55 Cloudy with Light Rain 67 19.3 64 18 92 92 E 8 13 29.89 1012 10 16.0934 0.12 3.048

Powered by AerisWeather